Location: Handeloh
(53.2500°N, 9.8330°E)
Time: 23:48:08
(UTC+01:00)

ISS - Visible Passes

Search period start: 19 February 2019 00:00
Search period end: 01 March 2019 00:00
Orbit: 403 x 411 km, 51.6° (Epoch: 20 February)

Date Brightness Start Highest point End Pass type
(mag) Time Alt. Az. Time Alt. Az. Time Alt. Az.
23 Feb -0.6 06:35:56 10° SSE 06:37:03 11° SE 06:38:11 10° ESE visible
25 Feb -1.3 06:27:46 10° SSW 06:30:14 20° SSE 06:32:42 10° E visible
26 Feb -1.0 05:37:12 10° S 05:38:57 14° SE 05:40:42 10° ESE visible
27 Feb -2.3 06:20:30 10° SW 06:23:28 32° SSE 06:26:26 10° E visible
28 Feb -1.8 05:30:09 14° SSW 05:32:05 23° SSE 05:34:45 10° E visible
